Home   Weather   Louisville   Past weeks
Flag for Guadeloupe

Past Weather in Louisville, Guadeloupe, Guadeloupe — Yesterday and Last 2 Weeks

Currently: 82 °F. Partly sunny. (Weather station: Le Raizet - Guadeloupe, Guadeloupe). See more current weather

Past Weather in Louisville — Graph

°F

Louisville Temperature Yesterday

Maximum temperature yesterday: 88 °F (at 12:00 pm)
Minimum temperature yesterday: 77 °F (at 12:30 am)
Average temperature yesterday: 81 °F

High & Low Weather Summary for the Past Weeks

 TemperatureHumidityPressure
High88 °F (May 16, 2:00 pm)100% (May 24, 3:00 am)30.15 "Hg (May 24, 3:00 am)
Low72 °F (May 24, 3:00 am)55% (May 21, 2:00 pm)29.92 "Hg (May 11, 3:30 pm)
Average81 °F77%30.02 "Hg
* Reported May 11 8:00 am — May 26 8:00 am, Louisville. Weather by CustomWeather, © 2022

Note: Actual official high and low records may vary slightly from our data, if they occured in-between our weather recording intervals... More about our weather records

Louisville Weather History for the Previous 24 Hours

Scroll right to see more
 ConditionsComfort  
Time TempWeatherWind HumidityBarometerVisibility
8:00 am
Thu, May 26
82 °FPassing clouds.9 mph74%30.04 "HgN/A
7:30 am81 °FSunny.7 mph79%30.04 "Hg10 mi
7:00 am79 °FPassing clouds.5 mph84%30.04 "HgN/A
6:30 am79 °FBroken clouds.3 mph84%30.01 "HgN/A
6:00 am77 °FOvercast.7 mph89%30.01 "HgN/A
5:30 am77 °FPassing clouds.7 mph89%30.01 "HgN/A
5:00 am77 °FWarm.5 mph89%29.98 "HgN/A
4:30 am77 °FOvercast.3 mph89%29.98 "HgN/A
4:00 am77 °FOvercast.2 mph89%29.98 "HgN/A
3:30 am77 °FClear.3 mph89%29.98 "Hg10 mi
3:00 am77 °FPassing clouds.3 mph89%29.98 "HgN/A
2:30 am77 °FOvercast.6 mph89%29.98 "HgN/A
2:00 am77 °FPassing clouds.6 mph89%29.98 "HgN/A
1:30 am77 °FClear.5 mph89%29.98 "Hg10 mi
1:00 am77 °FClear.5 mph89%30.01 "Hg10 mi
12:30 am77 °FClear.3 mph89%30.01 "Hg10 mi
12:00 am79 °FPassing clouds.5 mph89%30.04 "HgN/A
11:30 pm
Wed, May 25
79 °FClear.7 mph89%30.04 "Hg10 mi
11:00 pm79 °FMostly cloudy.5 mph89%30.04 "HgN/A
10:30 pm79 °FMostly cloudy.5 mph89%30.04 "HgN/A
10:00 pm79 °FClear.5 mph84%30.04 "Hg10 mi
9:30 pm79 °FClear.6 mph84%30.01 "Hg10 mi
9:00 pm79 °FClear.6 mph89%30.01 "Hg10 mi
8:30 pm79 °FClear.8 mph89%30.01 "Hg10 mi
8:00 pm79 °FMostly cloudy.7 mph89%30.01 "HgN/A
7:30 pm79 °FPartly cloudy.6 mph89%30.01 "HgN/A
7:00 pm81 °FOvercast.7 mph84%30.01 "HgN/A
6:30 pm81 °FPassing clouds.5 mph79%29.98 "HgN/A
6:00 pm81 °FWarm.9 mph79%29.98 "HgN/A
5:00 pm82 °FPartly sunny.13 mph74%29.98 "HgN/A
4:00 pm84 °FCloudy.13 mph70%29.98 "HgN/A
3:30 pm84 °FBroken clouds.15 mph70%29.98 "HgN/A
3:00 pm84 °FBroken clouds.15 mph74%29.98 "HgN/A
2:30 pm84 °FPartly sunny.14 mph74%29.98 "HgN/A
2:00 pm84 °FScattered clouds.14 mph74%30.01 "HgN/A
1:00 pm86 °FWarm.15 mph66%30.01 "HgN/A
12:30 pm86 °FPartly sunny.14 mph66%30.01 "HgN/A
12:00 pm88 °FPartly sunny.13 mph66%30.01 "HgN/A
11:30 am86 °FScattered clouds.13 mph66%30.04 "HgN/A
11:00 am86 °FPartly sunny.12 mph62%30.04 "HgN/A
10:30 am84 °FPartly sunny.12 mph74%30.04 "HgN/A
10:00 am82 °FBroken clouds.13 mph79%30.04 "HgN/A
9:30 am84 °FPartly sunny.10 mph70%30.04 "HgN/A
Weather by CustomWeather, © 2022

See weather overview